Regional Weather Roundup
Issued by NWS

Home | Current Version | Previous Version | Text Only | Print | Product List | Glossary Off
Versions: 1 2 3 4 5 6 7 8 9 10 11 12 13 14 15 16 17 18 19 20 21 22 23 24 25 26 27 28 29 30 31 32 33 34 35 36 37 38 39 40 41 42 43 44 45 46 47 48 49 50

000
ASUS43 KFSD 261510
RWRSD

WEATHER ROUNDUP FOR SOUTH DAKOTA
NATIONAL WEATHER SERVICE SIOUX FALLS SD
1000 AM CDT MON SEP 26 2016

NOTE: "FAIR" INDICATES FEW OR NO CLOUDS BELOW 12,000 FEET WITH NO
SIGNIFICANT WEATHER AND/OR OBSTRUCTIONS TO VISIBILITY.


SDZ001>005-009-010-012>017-261600-
NORTHWEST AND NORTH CENTRAL SOUTH DAKOTA

CITY           SKY/WX    TMP DP  RH WIND       PRES   REMARKS
BUFFALO          N/A     55  42  61 W13       30.18S
MOBRIDGE       SUNNY     55  40  56 NW7       30.16S
$$

SDZ012>016-024>037-041>051-057-063-072>074-261600-
SOUTHWEST AND SOUTH CENTRAL SOUTH DAKOTA

CITY           SKY/WX    TMP DP  RH WIND       PRES   REMARKS
RAPID CTY ARPT SUNNY     61  40  45 W8        30.27F
PIERRE         SUNNY     53  39  59 NW5       30.21R
CUSTER         SUNNY     54  36  50 W9        30.35F
ELLSWORTH AFB  SUNNY     60  42  49 W6        30.27S
PHILIP         SUNNY     55  38  52 W10       30.25S
PINE RIDGE     SUNNY     53  36  52 W7        30.32S
WINNER         FAIR      63  39  41 W6        30.23F
$$

SDZ004>011-016>023-039-040-261600-
NORTHEAST SOUTH DAKOTA

CITY           SKY/WX    TMP DP  RH WIND       PRES   REMARKS
ABERDEEN       SUNNY     55  36  48 W15       30.14S
WATERTOWN      SUNNY     55  38  52 W14       30.11S
BROOKINGS      SUNNY     55  38  52 NW15      30.13S
SISSETON         N/A     58  36  43 NW17G26   30.06R
$$

SDZ017-020-022-023-036>040-048>070-261600-
SOUTHEAST SOUTH DAKOTA

CITY           SKY/WX    TMP DP  RH WIND       PRES   REMARKS
SIOUX FALLS    MOSUNNY   56  40  55 W13G21    30.16F
HURON          SUNNY     58  40  51 W12       30.16F
CHAMBERLAIN    MOSUNNY   56  39  52 W7        30.22S
MITCHELL       SUNNY     57  40  52 W10       30.19F
YANKTON        SUNNY     57  39  51 W15       30.19F
$$

ABBREVIATIONS USED IN REMARKS
   TC - TEMPERATURE IN CELSIUS
  WCI - WIND CHILL INDEX
   HX - HEAT INDEX
  VSB - VISIBILITY





USA.gov is the U.S. government's official web portal to all federal, state and local government web resources and services.